Regional Weather Roundup
Issued by NWS

Home | Current Version | Previous Version | Graphics & Text | Print | Product List | Glossary On
Versions: 1 2 3 4 5 6 7 8 9 10 11 12 13 14 15 16 17 18 19 20 21 22 23 24 25 26 27
000
ASUS45 KCYS 231010
RWRWY

WYOMING REGIONAL WEATHER ROUNDUP
NATIONAL WEATHER SERVICE CHEYENNE WY
300 AM MST THU FEB 23 2017

NOTE:  "FAIR" INDICATES FEW OR NO CLOUDS BELOW 12,000 FEET
WITH NO SIGNIFICANT WEATHER AND/OR OBSTRUCTIONS TO VISIBILITY.

WYZ001-231100-
YELLOWSTONE NATIONAL PARK

CITY           SKY/WX    TMP DP  RH WIND       PRES   REMARKS
LK YELLOWSTONE   N/A      5   2  87 VRB3      29.66F
W YELLOWSTONE  NOT AVBL

$$
WYZ002>013-054>058-071-098>099-231100-
NORTHERN WYOMING

CITY           SKY/WX    TMP DP  RH WIND       PRES   REMARKS
JACKSON        CLOUDY    18  14  86 N10       29.63F WCI   6
CODY           CLOUDY    26  23  88 N14G22    29.77F WCI  14
GREYBULL       FAIR      31  25  78 NW9       29.74F WCI  23
WORLAND        MOCLDY    31  28  89 N3        29.74F
SHERIDAN       CLOUDY    30  26  85 E7        29.84F WCI  23
BUFFALO        CLOUDY    28  24  85 NE6       29.81F WCI  22
GILLETTE       CLOUDY    29  26  89 NE8       29.81F WCI  21
HULETT         CLOUDY    28  27  93 E9        29.84F WCI  20
NEWCASTLE      LGT SNOW  28  28 100 W3        29.80F

$$
WYZ014>020-022>026-101>103-231100-
CENTRAL WYOMING

CITY           SKY/WX    TMP DP  RH WIND       PRES   REMARKS
BIG PINEY      LGT SNOW  19  16  88 N10       29.57F WCI   7
PINEDALE       CLOUDY    18  12  79 CALM      29.58F
DUBOIS         FLURRIES  18  16  93 CALM      29.62F
LANDER         LGT SNOW  27  26  96 N10       29.65F FOG     WCI  17
RIVERTON       FLURRIES  28  25  88 NE14      29.66F WCI  17
CASPER         LGT SNOW  27  25  92 NE20      29.67F VSB 3/4 WCI  13
DOUGLAS        LGT SNOW  27  25  92 E14       29.72F VSB 1   WCI  16

$$
WYZ021-027>030-104>119-231100-
SOUTHERN WYOMING

CITY           SKY/WX    TMP DP  RH WIND       PRES   REMARKS
EVANSTON       LGT SNOW  19  15  84 SW9       29.59F FOG     WCI   8
FORT BRIDGER   LGT SNOW  21  21 100 W16       29.62F VSB 1   WCI   7
ROCK SPRINGS   LGT SNOW  24  21  88 NW6       29.53F FOG     WCI  17
DIXON          LGT SNOW  27  25  94 CALM      29.51F
RAWLINS        LGT SNOW  25  22  88 NE25G33   29.49F FOG     WCI   9
SARATOGA       LGT SNOW  25  25 100 E5        29.50F VSB 1   WCI  19
LARAMIE        CLOUDY    26  21  81 SE29G43   29.52F WCI  10
CHEYENNE       LGT SNOW  29  28  96 E12       29.65F VSB 1   WCI  19
TORRINGTON     LGT SNOW  30  28  92 E12       29.73S VSB 3/4 WCI  20
PINE BLUFFS    CLOUDY    32  28  86 NE12G20   29.68F WCI  23

$$




USA.gov is the U.S. government's official web portal to all federal, state and local government web resources and services.